This demonstration page uses our WeatherBlox Daily Observations layout. Learn more.

Left ArrowRight Arrow

Hourly Observations for January 25, 2015

Temp ( °F °C ) Dew Point ( °F °C ) Humidity (%) Winds ( mph kmh ) Pressure ( in mb ) Visibility ( mi km ) Precip ( " mm )
12:51 am 00:51 Clear 43 6.1 15 -9.4 32 32 ESE 10 17 30.16 1021 10 16 0.00 0.00
1:51 am 01:51 Clear 42 5.6 18 -7.8 38 38 E 10 17 30.15 1021 10 16 0.00 0.00
2:51 am 02:51 Clear 41 5 17 -8.3 38 38 ESE 12 19 30.14 1021 10 16 0.00 0.00
3:51 am 03:51 Clear 37 2.8 18 -7.8 46 46 ESE 6 9 30.13 1020 10 16 0.00 0.00
4:51 am 04:51 Clear 40 4.4 18 -7.8 41 41 SE 10 17 30.14 1021 10 16 0.00 0.00
5:51 am 05:51 Clear 38 3.3 18 -7.8 44 44 SE 7 11 30.15 1021 10 16 0.00 0.00
6:51 am 06:51 Clear 35 1.7 19 -7.2 52 52 E 5 7 30.19 1022 10 16 0.00 0.00
7:51 am 07:51 Sunny 33 0.6 20 -6.7 58 58 ESE 3 6 30.21 1023 10 16 0.00 0.00
8:51 am 08:51 Sunny 42 5.6 20 -6.7 41 41 ESE 7 11 30.21 1023 10 16 0.00 0.00
9:51 am 09:51 Sunny 49 9.4 20 -6.7 32 32 SE 8 13 30.21 1023 10 16 0.00 0.00
10:51 am 10:51 Sunny 53 11.7 20 -6.7 27 27 ESE 9 15 30.21 1023 10 16 0.00 0.00
11:51 am 11:51 Sunny 53 11.7 20 -6.7 27 27 SSE 8 13 30.20 1023 10 16 0.00 0.00
12:51 pm 12:51 Sunny 59 15 18 -7.8 20 20 SE 9 15 30.15 1021 10 16 0.00 0.00
1:51 pm 13:51 Sunny 62 16.7 17 -8.3 17 17 SE 10 17 30.11 1020 10 16 0.00 0.00
2:51 pm 14:51 Sunny 63 17.2 16 -8.9 16 16 VRB 7 11 30.09 1019 10 16 0.00 0.00
3:51 pm 15:51 Sunny 64 17.8 17 -8.3 16 16 VRB 3 6 30.08 1019 10 16 0.00 0.00
4:51 pm 16:51 Sunny 63 17.2 19 -7.2 18 18 SSE 6 9 30.09 1019 10 16 0.00 0.00
5:51 pm 17:51 Clear 57 13.9 20 -6.7 24 24 SSE 3 6 30.12 1020 10 16 0.00 0.00
6:51 pm 18:51 Clear 50 10 22 -5.6 33 33 ENE 6 9 30.15 1021 10 16 0.00 0.00
7:51 pm 19:51 Clear 50 10 22 -5.6 33 33 E 9 15 30.19 1022 10 16 0.00 0.00
8:51 pm 20:51 Clear 49 9.4 22 -5.6 35 35 E 10 17 30.18 1022 10 16 0.00 0.00
9:51 pm 21:51 Clear 50 10 24 -4.4 36 36 E 10 17 30.17 1022 10 16 0.00 0.00
10:51 pm 22:51 Clear 49 9.4 25 -3.9 39 39 E 9 15 30.18 1022 10 16 0.00 0.00
11:51 pm 23:51 Clear 50 10 25 -3.9 38 38 ESE 9 15 30.18 1022 10 16 0.00 0.00

Powered by AerisWeather